• In Hungary
  • List of Countries
  • For 7 days
  • Water Temperature
  • Satellite Maps
  • Weather Map
  • News
  • Weather Widgets
  • user-avatar
    Login

    Hourly Weather Puerto Viejo

    Today, 15 December, Friday

    Time Temperature Precipitation Wind Pressure Humidity
    00:00 +23°C° 0 mm 1 mps 748 mmHg 93%
    01:00 +23°C° 0 mm 1 mps 748 mmHg 93%
    02:00 +22°C° 0 mm 1 mps 748 mmHg 93%
    03:00 +22°C° 0 mm 1 mps 748 mmHg 93%
    04:00 +22°C° 0 mm 1 mps 748 mmHg 92%
    05:00 +22°C° 0 mm 1 mps 748 mmHg 91%
    06:00 +22°C° 0 mm 1 mps 748 mmHg 91%
    07:00 +24°C° 0 mm 1 mps 749 mmHg 82%
    08:00 +27°C° 0 mm 1 mps 749 mmHg 73%
    09:00 +29°C° 0 mm 1 mps 750 mmHg 64%
    10:00 +30°C° 0.1 mm 2 mps 749 mmHg 60%
    11:00 +31°C° 0.1 mm 2 mps 749 mmHg 57%
    12:00 +33°C° 0.1 mm 3 mps 748 mmHg 53%
    13:00 +32°C° 0 mm 2 mps 748 mmHg 54%
    14:00 +32°C° 0 mm 2 mps 747 mmHg 55%
    15:00 +31°C° 0 mm 2 mps 747 mmHg 56%
    16:00 +29°C° 0 mm 2 mps 747 mmHg 67%
    17:00 +27°C° 0 mm 1 mps 747 mmHg 78%
    18:00 +25°C° 0 mm 1 mps 747 mmHg 89%
    19:00 +24°C° 0 mm 1 mps 748 mmHg 90%
    20:00 +24°C° 0 mm 1 mps 748 mmHg 91%
    21:00 +23°C° 0 mm 1 mps 749 mmHg 92%
    22:00 +23°C° 0 mm 1 mps 749 mmHg 90%
    23:00 +23°C° 0 mm 1 mps 749 mmHg 88%

    Tomorrow, 16 December, Saturday

    Time Temperature Precipitation Wind Pressure Humidity
    00:00 +23°C° 0 mm 1 mps 749 mmHg 85%
    01:00 +23°C° 0 mm 1 mps 748 mmHg 86%
    02:00 +23°C° 0 mm 1 mps 748 mmHg 88%
    03:00 +23°C° 0 mm 1 mps 748 mmHg 89%
    04:00 +23°C° 0 mm 1 mps 748 mmHg 89%
    05:00 +24°C° 0 mm 1 mps 748 mmHg 90%
    06:00 +24°C° 0 mm 1 mps 748 mmHg 90%
    07:00 +25°C° 0 mm 1 mps 749 mmHg 85%
    08:00 +27°C° 0 mm 1 mps 749 mmHg 79%
    09:00 +29°C° 0 mm 2 mps 750 mmHg 74%
    10:00 +30°C° 0.1 mm 2 mps 749 mmHg 70%
    11:00 +31°C° 0.1 mm 3 mps 749 mmHg 66%
    12:00 +33°C° 0.1 mm 3 mps 748 mmHg 62%
    13:00 +31°C° 0.2 mm 3 mps 748 mmHg 65%
    14:00 +31°C° 0.2 mm 3 mps 747 mmHg 67%
    15:00 +30°C° 0.2 mm 3 mps 747 mmHg 70%
    16:00 +29°C° 0.2 mm 3 mps 747 mmHg 77%
    17:00 +27°C° 0.2 mm 2 mps 747 mmHg 85%
    18:00 +25°C° 0.2 mm 2 mps 748 mmHg 92%
    19:00 +25°C° 0.1 mm 2 mps 748 mmHg 92%
    20:00 +25°C° 0.1 mm 2 mps 749 mmHg 93%
    21:00 +24°C° 0.1 mm 1 mps 749 mmHg 93%
    22:00 +24°C° 0.2 mm 1 mps 749 mmHg 92%
    23:00 +24°C° 0.2 mm 1 mps 749 mmHg 91%

    Day after tomorrow, 17 December, Sunday

    Time Temperature Precipitation Wind Pressure Humidity
    00:00 +23°C° 0.2 mm 1 mps 748 mmHg 90%
    01:00 +24°C° 0.2 mm 1 mps 748 mmHg 91%
    02:00 +24°C° 0.2 mm 1 mps 748 mmHg 91%
    03:00 +24°C° 0.2 mm 1 mps 747 mmHg 92%
    04:00 +24°C° 0.1 mm 1 mps 748 mmHg 91%
    05:00 +24°C° 0.1 mm 1 mps 748 mmHg 91%
    06:00 +24°C° 0.1 mm 2 mps 748 mmHg 91%
    07:00 +26°C° 0.1 mm 2 mps 749 mmHg 80%
    08:00 +28°C° 0.1 mm 2 mps 749 mmHg 69%
    09:00 +30°C° 0.1 mm 3 mps 750 mmHg 58%
    10:00 +31°C° 0.2 mm 3 mps 749 mmHg 60%
    11:00 +31°C° 0.2 mm 3 mps 749 mmHg 61%
    12:00 +31°C° 0.2 mm 3 mps 748 mmHg 63%
    13:00 +31°C° 0.2 mm 3 mps 747 mmHg 65%
    14:00 +31°C° 0.2 mm 3 mps 747 mmHg 67%
    15:00 +30°C° 0.2 mm 3 mps 746 mmHg 69%
    16:00 +29°C° 0.2 mm 3 mps 746 mmHg 76%
    17:00 +27°C° 0.2 mm 2 mps 747 mmHg 83%
    18:00 +26°C° 0.2 mm 2 mps 747 mmHg 89%
    19:00 +25°C° 0.2 mm 2 mps 748 mmHg 90%
    20:00 +25°C° 0.2 mm 1 mps 748 mmHg 91%
    21:00 +25°C° 0.2 mm 1 mps 749 mmHg 91%
    22:00 +25°C° 0.3 mm 1 mps 748 mmHg 91%
    23:00 +25°C° 0.3 mm 1 mps 748 mmHg 91%

    18 December, Monday

    Time Temperature Precipitation Wind Pressure Humidity
    00:00 +25°C° 0.3 mm 1 mps 748 mmHg 91%
    01:00 +25°C° 0.3 mm 1 mps 748 mmHg 92%
    02:00 +24°C° 0.3 mm 1 mps 747 mmHg 93%
    03:00 +24°C° 0.3 mm 2 mps 747 mmHg 94%
    04:00 +24°C° 0.2 mm 2 mps 747 mmHg 94%
    05:00 +24°C° 0.2 mm 2 mps 748 mmHg 93%
    06:00 +24°C° 0.2 mm 2 mps 748 mmHg 93%
    07:00 +26°C° 0.2 mm 2 mps 748 mmHg 86%
    08:00 +27°C° 0.2 mm 2 mps 749 mmHg 78%
    09:00 +29°C° 0.2 mm 3 mps 749 mmHg 71%
    10:00 +30°C° 0.3 mm 3 mps 749 mmHg 69%
    11:00 +30°C° 0.3 mm 3 mps 748 mmHg 68%
    12:00 +31°C° 0.3 mm 3 mps 748 mmHg 67%
    13:00 +31°C° 0.3 mm 3 mps 747 mmHg 67%
    14:00 +31°C° 0.3 mm 3 mps 747 mmHg 68%
    15:00 +30°C° 0.3 mm 3 mps 746 mmHg 68%
    16:00 +29°C° 0.1 mm 3 mps 747 mmHg 76%
    17:00 +27°C° 0.1 mm 2 mps 747 mmHg 83%
    18:00 +26°C° 0.1 mm 2 mps 748 mmHg 91%
    19:00 +25°C° 0.2 mm 1 mps 748 mmHg 91%
    20:00 +25°C° 0.2 mm 1 mps 749 mmHg 92%
    21:00 +25°C° 0.2 mm 1 mps 749 mmHg 92%
    22:00 +24°C° 0.1 mm 1 mps 749 mmHg 92%
    23:00 +24°C° 0.1 mm 1 mps 748 mmHg 92%

    19 December, Tuesday

    Time Temperature Precipitation Wind Pressure Humidity
    00:00 +24°C° 0.1 mm 1 mps 748 mmHg 92%
    01:00 +24°C° 0.1 mm 1 mps 748 mmHg 93%
    02:00 +24°C° 0.1 mm 1 mps 747 mmHg 93%
    03:00 +24°C° 0.1 mm 1 mps 747 mmHg 94%
    04:00 +23°C° 0 mm 1 mps 748 mmHg 94%
    05:00 +23°C° 0 mm 1 mps 748 mmHg 94%
    06:00 +23°C° 0 mm 1 mps 748 mmHg 94%
    07:00 +26°C° 0 mm 1 mps 749 mmHg 85%
    08:00 +28°C° 0 mm 1 mps 749 mmHg 76%
    09:00 +30°C° 0 mm 2 mps 749 mmHg 68%
    10:00 +31°C° 0.1 mm 2 mps 749 mmHg 62%
    11:00 +33°C° 0.1 mm 3 mps 748 mmHg 57%
    12:00 +34°C° 0.1 mm 3 mps 748 mmHg 52%
    13:00 +34°C° 0 mm 3 mps 747 mmHg 53%
    14:00 +34°C° 0 mm 3 mps 747 mmHg 55%
    15:00 +33°C° 0 mm 3 mps 746 mmHg 57%
    16:00 +30°C° 0.1 mm 2 mps 746 mmHg 68%
    17:00 +28°C° 0.1 mm 2 mps 747 mmHg 78%
    18:00 +26°C° 0.1 mm 1 mps 747 mmHg 89%
    19:00 +25°C° 0.3 mm 1 mps 748 mmHg 90%
    20:00 +25°C° 0.3 mm 1 mps 748 mmHg 90%
    21:00 +25°C° 0.3 mm 1 mps 749 mmHg 91%
    22:00 +25°C° 0.2 mm 1 mps 748 mmHg 91%
    23:00 +24°C° 0.2 mm 1 mps 748 mmHg 91%

    20 December, Wednesday

    Time Temperature Precipitation Wind Pressure Humidity
    00:00 +24°C° 0.2 mm 1 mps 748 mmHg 91%
    01:00 +24°C° 0.2 mm 1 mps 748 mmHg 91%
    02:00 +24°C° 0.2 mm 1 mps 747 mmHg 92%
    03:00 +24°C° 0.2 mm 1 mps 747 mmHg 93%
    04:00 +24°C° 0.2 mm 1 mps 748 mmHg 93%
    05:00 +24°C° 0.2 mm 1 mps 748 mmHg 93%
    06:00 +24°C° 0.2 mm 1 mps 748 mmHg 93%
    07:00 +26°C° 0.4 mm 1 mps 749 mmHg 88%
    08:00 +27°C° 0.4 mm 1 mps 749 mmHg 82%
    09:00 +29°C° 0.4 mm 2 mps 749 mmHg 77%
    10:00 +29°C° 1 mm 2 mps 749 mmHg 77%
    11:00 +29°C° 1 mm 2 mps 748 mmHg 77%
    12:00 +30°C° 1 mm 2 mps 748 mmHg 77%
    13:00 +29°C° 1.2 mm 2 mps 747 mmHg 79%
    14:00 +29°C° 1.2 mm 2 mps 746 mmHg 81%
    15:00 +29°C° 1.2 mm 2 mps 746 mmHg 83%
    16:00 +28°C° 0.9 mm 2 mps 746 mmHg 87%
    17:00 +26°C° 0.9 mm 2 mps 747 mmHg 91%
    18:00 +25°C° 0.9 mm 1 mps 747 mmHg 94%
    19:00 +25°C° 0.8 mm 1 mps 747 mmHg 94%
    20:00 +25°C° 0.8 mm 1 mps 748 mmHg 94%
    21:00 +25°C° 0.8 mm 1 mps 748 mmHg 94%
    22:00 +24°C° 0.6 mm 1 mps 748 mmHg 95%
    23:00 +24°C° 0.6 mm 1 mps 747 mmHg 95%
    Show more